Weather History for Canton, GA

Change the Weather History Date:

Sunday, August 25, 2013

  Actual Average (KGVL) Record (KGVL)
Temperature  
Mean Temperature 71 °F 77 °F  
Max Temperature 80 °F 86 °F 101 °F (1968)
Min Temperature 62 °F 69 °F 56 °F (1952)
Cooling Degree Days 6 12  
Month to date cooling degree days 336  
Year to date cooling degree days 1258  
Since 1 June cooling degree days 1083  
Growing Degree Days 21 (Base 50)    
Moisture  
Dew Point 55 °F    
Average Humidity 56    
Maximum Humidity 78    
Minimum Humidity 34    
Precipitation  
Precipitation 0.00 in 0.14 in 3.53 in (1985)
Month to date precipitation 3.74  
Year to date precipitation 35.56  
Sea Level Pressure  
Sea Level Pressure 30.33 in    
Wind  
Wind Speed 5 mph (East)    
Max Wind Speed 10 mph    
Max Gust Speed 16 mph    
Visibility 10 miles    
Events      
T = Trace of Precipitation, MM = Missing Value Source: NWS Daily Summary

Daily Weather History Graph

Daily Weather History Graph

Search for Another Location

Airport:

Trip Planner

Search our weather history database for the weather conditions in past years. The results will help you decide how hot, cold, wet, or windy it might be!

Date:

Astronomy

Aug. 25, 2013 Rise Set
Actual Time 7:06 AM EDT 8:12 PM EDT
Civil Twilight 6:40 AM EDT 8:38 PM EDT
Nautical Twilight 6:09 AM EDT 9:09 PM EDT
Astronomical Twilight 5:37 AM EDT 9:41 PM EDT
Moon 10:59 PM EDT (8/25) 11:51 AM EDT (8/25)
Length of Visible Light 13h 58m
Length of Day
13h 06m
Waning Gibbous, 76% of the Moon is Illuminated
Aug 25
Waning Gibbous
Aug 28
Last Quarter
Sep 5
New
Sep 12
First Quarter
Sep 19
Full

Hourly Weather History & Observations

Time (EDT) Temp. Dew Point Humidity Pressure Visibility Wind Dir Wind Speed Gust Speed Precip Events Conditions
12:15 AM 71.6 °F 62.6 °F 73% 30.30 in 10.0 mi East 3.5 mph - N/A   Overcast
12:35 AM 71.6 °F 62.6 °F 73% 30.30 in 10.0 mi East 4.6 mph - N/A   Overcast
12:55 AM 71.6 °F 62.6 °F 73% 30.30 in 10.0 mi ENE 5.8 mph - N/A   Overcast
1:15 AM 71.6 °F 60.8 °F 69% 30.30 in 10.0 mi East 5.8 mph - N/A   Overcast
1:35 AM 71.6 °F 60.8 °F 69% 30.30 in 10.0 mi East 4.6 mph - N/A   Overcast
1:55 AM 69.8 °F 60.8 °F 73% 30.30 in 10.0 mi ENE 4.6 mph - N/A   Overcast
2:15 AM 69.8 °F 60.8 °F 73% 30.31 in 10.0 mi ENE 6.9 mph - N/A   Overcast
2:35 AM 69.8 °F 59.0 °F 68% 30.31 in 10.0 mi East 4.6 mph - N/A   Overcast
2:55 AM 69.8 °F 59.0 °F 68% 30.31 in 10.0 mi ENE 8.1 mph - N/A   Overcast
3:15 AM 69.8 °F 57.2 °F 64% 30.31 in 10.0 mi East 5.8 mph - N/A   Scattered Clouds
3:35 AM 68.0 °F 57.2 °F 68% 30.31 in 10.0 mi East 4.6 mph - N/A   Scattered Clouds
3:55 AM 68.0 °F 57.2 °F 68% 30.31 in 10.0 mi East 3.5 mph - N/A   Scattered Clouds
4:15 AM 68.0 °F 57.2 °F 68% 30.31 in 10.0 mi ENE 3.5 mph - N/A   Scattered Clouds
4:35 AM 66.2 °F 57.2 °F 73% 30.31 in 10.0 mi East 3.5 mph - N/A   Clear
4:55 AM 66.2 °F 57.2 °F 73% 30.31 in 10.0 mi East 3.5 mph - N/A   Scattered Clouds
5:15 AM 64.4 °F 57.2 °F 77% 30.32 in 10.0 mi ENE 3.5 mph - N/A   Clear
5:35 AM 64.4 °F 55.4 °F 73% 30.32 in 10.0 mi Calm Calm - N/A   Clear
5:55 AM 64.4 °F 55.4 °F 73% 30.33 in 10.0 mi Calm Calm - N/A   Clear
6:15 AM 64.4 °F 55.4 °F 73% 30.33 in 10.0 mi Calm Calm - N/A   Clear
6:35 AM 64.4 °F 55.4 °F 73% 30.33 in 10.0 mi ENE 3.5 mph - N/A   Clear
6:55 AM 62.6 °F 55.4 °F 77% 30.33 in 10.0 mi East 3.5 mph - N/A   Clear
7:15 AM 62.6 °F 55.4 °F 77% 30.34 in 10.0 mi Calm Calm - N/A   Clear
7:35 AM 62.6 °F 55.4 °F 77% 30.35 in 10.0 mi ENE 3.5 mph - N/A   Clear
7:55 AM 62.6 °F 55.4 °F 77% 30.36 in 10.0 mi ENE 4.6 mph - N/A   Clear
8:15 AM 64.4 °F 55.4 °F 73% 30.36 in 10.0 mi ENE 3.5 mph - N/A   Clear
8:35 AM 66.2 °F 55.4 °F 68% 30.37 in 10.0 mi ENE 3.5 mph - N/A   Clear
8:55 AM 68.0 °F 53.6 °F 60% 30.37 in 10.0 mi East 4.6 mph - N/A   Clear
9:15 AM 69.8 °F 53.6 °F 56% 30.38 in 10.0 mi ENE 3.5 mph - N/A   Scattered Clouds
9:35 AM 71.6 °F 53.6 °F 53% 30.38 in 10.0 mi East 6.9 mph - N/A   Clear
9:55 AM 71.6 °F 53.6 °F 53% 30.39 in 10.0 mi ENE 10.4 mph - N/A   Clear
10:15 AM 73.4 °F 51.8 °F 47% 30.40 in 10.0 mi East 6.9 mph 16.1 mph N/A   Clear
10:35 AM 73.4 °F 53.6 °F 50% 30.40 in 10.0 mi ENE 8.1 mph - N/A   Clear
10:55 AM 75.2 °F 53.6 °F 47% 30.41 in 10.0 mi ENE 4.6 mph - N/A   Clear
11:15 AM 77.0 °F 53.6 °F 44% 30.40 in 10.0 mi East 5.8 mph - N/A   Clear
11:35 AM 77.0 °F 53.6 °F 44% 30.40 in 10.0 mi East 4.6 mph - N/A   Clear
11:55 AM 77.0 °F 51.8 °F 41% 30.40 in 10.0 mi ESE 6.9 mph - N/A   Clear
12:15 PM 78.8 °F 51.8 °F 39% 30.39 in 10.0 mi ENE 9.2 mph - N/A   Scattered Clouds
12:35 PM 78.8 °F 51.8 °F 39% 30.38 in 10.0 mi ENE 8.1 mph - N/A   Scattered Clouds
12:55 PM 78.8 °F 50.0 °F 36% 30.37 in 10.0 mi East 9.2 mph - N/A   Scattered Clouds
1:15 PM 80.6 °F 50.0 °F 34% 30.36 in 10.0 mi SSE 5.8 mph - N/A   Scattered Clouds
1:35 PM 80.6 °F 51.8 °F 37% 30.35 in 10.0 mi East 6.9 mph - N/A   Scattered Clouds
1:55 PM 78.8 °F 51.8 °F 39% 30.35 in 10.0 mi East 6.9 mph - N/A   Scattered Clouds
2:15 PM 78.8 °F 51.8 °F 39% 30.35 in 10.0 mi East 6.9 mph - N/A   Mostly Cloudy
2:35 PM 80.6 °F 50.0 °F 34% 30.34 in 10.0 mi ENE 8.1 mph - N/A   Mostly Cloudy
2:55 PM 80.6 °F 51.8 °F 37% 30.33 in 10.0 mi ENE 8.1 mph - N/A   Scattered Clouds
3:15 PM 78.8 °F 50.0 °F 36% 30.33 in 10.0 mi East 6.9 mph - N/A   Clear
3:35 PM 80.6 °F 51.8 °F 37% 30.31 in 10.0 mi East 3.5 mph - N/A   Clear
3:55 PM 80.6 °F 51.8 °F 37% 30.31 in 10.0 mi ENE 6.9 mph - N/A   Scattered Clouds
4:15 PM 80.6 °F 51.8 °F 37% 30.31 in 10.0 mi ENE 5.8 mph - N/A   Scattered Clouds
4:35 PM 80.6 °F 50.0 °F 34% 30.30 in 10.0 mi East 5.8 mph - N/A   Scattered Clouds
4:55 PM 80.6 °F 50.0 °F 34% 30.29 in 10.0 mi East 6.9 mph - N/A   Clear
5:15 PM 80.6 °F 50.0 °F 34% 30.29 in 10.0 mi ENE 8.1 mph - N/A   Clear
5:35 PM 80.6 °F 50.0 °F 34% 30.29 in 10.0 mi SE 5.8 mph - N/A   Scattered Clouds
5:55 PM 80.6 °F 50.0 °F 34% 30.29 in 10.0 mi East 6.9 mph - N/A   Clear
6:15 PM 80.6 °F 50.0 °F 34% 30.30 in 10.0 mi ESE 8.1 mph - N/A   Clear
6:35 PM 78.8 °F 50.0 °F 36% 30.30 in 10.0 mi East 5.8 mph - N/A   Clear
6:55 PM 78.8 °F 51.8 °F 39% 30.30 in 10.0 mi East 5.8 mph - N/A   Clear
7:15 PM 77.0 °F 53.6 °F 44% 30.30 in 10.0 mi East 5.8 mph - N/A   Clear
7:35 PM 77.0 °F 53.6 °F 44% 30.30 in 10.0 mi ESE 5.8 mph - N/A   Clear
7:55 PM 75.2 °F 55.4 °F 50% 30.31 in 10.0 mi East 4.6 mph - N/A   Clear
8:15 PM 73.4 °F 55.4 °F 53% 30.31 in 10.0 mi ESE 3.5 mph - N/A   Clear
8:35 PM 71.6 °F 57.2 °F 60% 30.32 in 10.0 mi East 3.5 mph - N/A   Clear
8:55 PM 71.6 °F 57.2 °F 60% 30.32 in 10.0 mi East 3.5 mph - N/A   Clear
9:15 PM 71.6 °F 57.2 °F 60% 30.33 in 10.0 mi ESE 3.5 mph - N/A   Scattered Clouds
9:35 PM 71.6 °F 57.2 °F 60% 30.32 in 10.0 mi SE 3.5 mph - N/A   Scattered Clouds
9:55 PM 69.8 °F 57.2 °F 64% 30.33 in 10.0 mi Calm Calm - N/A   Scattered Clouds
10:15 PM 68.0 °F 60.8 °F 78% 30.34 in 10.0 mi Calm Calm - N/A   Mostly Cloudy
10:35 PM 68.0 °F 59.0 °F 73% 30.34 in 10.0 mi NNE 3.5 mph - N/A   Mostly Cloudy
10:55 PM 68.0 °F 59.0 °F 73% 30.35 in 10.0 mi Calm Calm - N/A   Mostly Cloudy
11:15 PM 68.0 °F 59.0 °F 73% 30.35 in 10.0 mi Calm Calm - N/A   Overcast
11:35 PM 69.8 °F 55.4 °F 60% 30.35 in 10.0 mi Calm Calm - N/A   Overcast
11:55 PM 66.2 °F 59.0 °F 78% 30.36 in 10.0 mi Calm Calm - N/A   Overcast